[[{"header":{"parameterUnit":"m.s-1","parameterCategory":1,"la1":30.2992,"la2":30.254,"lo1":-89.0895,"lo2":-89.0443,"dy":0.0025,"dx":0.0025,"nx":19,"ny":19,"refTime":"2026-04-29T09:00:00:Z","depth":0,"parameterNumber":2,"parameterNumberName":"U-component_of_WINDS"},"data":[0,0,0,3.2174,3.2178,3.2383,3.2384,3.2641,3.2643,0,0,0,0,0,0,0,0,0,0,0,3.2108,3.2109,3.2173,3.2178,3.2383,3.2384,3.264,3.2643,0,0,0,0,0,0,0,0,0,0,0,3.2107,3.2109,3.2111,3.2179,3.2383,3.2384,3.264,3.2487,0,0,0,0,0,0,0,0,0,0,3.2289,3.2223,3.2108,3.2111,3.218,3.2383,3.2384,3.248,3.2497,3.2545,0,3.2585,0,3.2618,3.2659,3.266,0,0,0,3.2182,3.2209,3.2269,3.2111,3.2182,3.2382,3.2292,3.2489,3.2508,3.2567,3.2588,3.2598,3.2622,3.2661,3.2662,3.2922,3.2923,0,0,3.2171,3.2142,3.2256,3.2281,3.2247,3.2285,3.2298,3.2501,3.2523,3.2589,3.2604,3.2626,3.2663,3.2665,3.2921,3.2922,0,0,0,3.2136,3.2134,3.2189,3.227,3.2307,3.2291,3.2306,3.2514,3.2534,3.2607,3.2629,3.2664,3.2667,3.292,3.2921,3.2944,0,0,0,3.2129,3.2114,3.2184,3.2169,3.2303,3.2413,3.2314,3.252,3.2544,3.2628,3.2664,3.267,3.2919,3.2921,3.2941,3.2959,0,0,0,3.2096,3.211,3.2138,3.2167,3.2254,3.241,3.2442,3.2526,3.2557,3.266,3.267,3.2918,3.292,3.2938,3.2955,3.3019,0,0,0,3.2053,3.2155,3.2138,3.226,3.2252,3.2422,3.2441,3.257,3.2661,3.2665,3.2919,3.2921,3.2937,3.2952,3.3016,3.3068,3.3086,0,0,3.2166,3.2168,3.2242,3.2233,3.2398,3.2393,3.2564,3.2674,3.2711,3.285,3.2857,3.2942,3.2954,3.3018,3.3202,3.3216,0,0,0,3.2268,3.2322,3.2372,3.2456,3.2543,3.2619,3.2706,3.2748,3.2867,3.2776,3.2983,3.2992,3.303,3.3056,3.3069,3.3104,3.2932,3.2932,3.2932,3.2387,3.2428,3.2554,3.2619,3.2701,3.279,3.2861,3.2932,3.295,3.2998,3.304,3.3146,3.3175,3.3185,3.3221,3.307,3.307,3.307,3.3071,3.2557,3.2638,3.2659,3.2788,3.2831,3.2941,3.3031,3.304,3.3149,3.3118,3.3154,3.3116,3.32,3.3233,3.3073,3.3072,3.3072,3.3072,3.3072,3.2639,3.2685,3.2733,3.2859,3.2953,3.3016,3.312,3.3155,3.319,3.3226,3.3273,3.3273,3.3277,3.3246,3.3246,3.3247,3.3247,3.3247,3.3247,3.2705,3.2758,3.2841,3.2941,3.3,3.3083,3.3174,3.3234,3.3309,3.3327,3.3328,3.3341,3.32,3.3164,3.3253,3.3252,3.3251,3.3251,3.3251,3.2861,3.2832,3.2958,3.3018,3.3139,3.3229,3.3274,3.3392,3.3447,3.3497,3.3503,3.3393,3.3398,3.3388,3.3359,3.3493,3.3493,3.3493,3.3494,3.2931,3.2936,3.3074,3.3166,3.3261,3.3314,3.3458,3.353,3.36,3.3637,3.3623,3.3587,3.3575,3.3587,3.3573,3.3546,3.3725,3.3726,3.3726,3.3029,3.3045,3.316,3.3227,3.3324,3.3408,3.3544,3.3651,3.3725,3.3736,3.3667,3.3657,3.3599,3.3578,3.3587,3.3564,3.3515,0,0]},{"header":{"parameterUnit":"m.s-1","parameterCategory":1,"la1":30.2992,"la2":30.254,"lo1":-89.0895,"lo2":-89.0443,"dy":0.0025,"dx":0.0025,"nx":19,"ny":19,"refTime":"2026-04-29T09:00:00:Z","depth":0,"parameterNumber":3,"parameterNumberName":"V-component_of_WINDS"},"data":[0,0,0,0.9291,0.9295,0.9497,0.9498,0.9751,0.9754,0,0,0,0,0,0,0,0,0,0,0,0.9223,0.9225,0.9291,0.9295,0.9497,0.9498,0.9751,0.9754,0,0,0,0,0,0,0,0,0,0,0,0.9223,0.9224,0.9226,0.9296,0.9497,0.9498,0.975,0.9601,0,0,0,0,0,0,0,0,0,0,0.9407,0.9335,0.9224,0.9226,0.9297,0.9496,0.9498,0.9594,0.9611,0.9656,0,0.969,0,0.9725,0.977,0.9771,0,0,0,0.9303,0.9321,0.9382,0.9226,0.9299,0.9496,0.9408,0.9604,0.9622,0.9678,0.9694,0.9703,0.9729,0.9771,0.9772,0.9996,0.9997,0,0,0.9292,0.9257,0.9369,0.9393,0.9356,0.9402,0.9414,0.9615,0.9632,0.9695,0.9709,0.9733,0.9773,0.9775,0.9995,0.9996,0,0,0,0.9255,0.9249,0.9305,0.9383,0.9419,0.9407,0.9422,0.9623,0.9644,0.9712,0.9736,0.9774,0.9777,0.9995,0.9996,0.9992,0,0,0,0.9249,0.9227,0.93,0.928,0.9415,0.9522,0.9425,0.963,0.9654,0.9735,0.9774,0.978,0.9994,0.9995,0.9991,0.9998,0,0,0,0.9213,0.9223,0.9249,0.9278,0.9362,0.952,0.9553,0.9636,0.9668,0.9771,0.978,0.9994,0.9995,0.999,0.9996,1.0046,0,0,0,0.9167,0.9247,0.9248,0.9347,0.936,0.9514,0.9552,0.967,0.9757,0.9776,0.9994,0.9996,0.9989,0.9995,1.0044,1.0082,1.0093,0,0,0.9248,0.9255,0.9316,0.9323,0.9466,0.9486,0.9632,0.9749,0.9795,0.9928,0.9934,0.9991,0.9996,1.0046,1.017,1.0178,0,0,0,0.933,0.9373,0.9419,0.9497,0.9584,0.966,0.9757,0.98,0.9914,0.9853,1.0024,1.0028,1.0058,1.0078,1.0086,1.0115,1.0003,1.0003,1.0002,0.9397,0.9445,0.9549,0.9621,0.9697,0.9794,0.9861,0.9937,0.9969,1.0007,1.0048,1.0116,1.0138,1.0144,1.0174,1.0071,1.0071,1.0071,1.0071,0.9521,0.9591,0.9624,0.9737,0.9789,0.9887,0.9984,1.0002,1.0104,1.0091,1.012,1.0103,1.0152,1.0181,1.0071,1.0071,1.0071,1.0071,1.0071,0.9571,0.9613,0.9659,0.9775,0.9861,0.9933,1.0027,1.0073,1.0117,1.0146,1.0194,1.0195,1.0201,1.0165,1.0165,1.0166,1.0166,1.0166,1.0166,0.9605,0.9658,0.9728,0.9824,0.9879,0.9958,1.0055,1.0113,1.0189,1.0216,1.0216,1.0244,1.0146,1.0121,1.017,1.017,1.0169,1.0169,1.0168,0.9716,0.9697,0.9805,0.986,0.9976,1.0058,1.0113,1.0226,1.0281,1.0326,1.0347,1.0266,1.0279,1.0273,1.0253,1.0334,1.0334,1.0334,1.0334,0.9759,0.9767,0.9887,0.9971,1.006,1.0119,1.0245,1.0321,1.0399,1.0436,1.0431,1.0408,1.0399,1.0418,1.0409,1.0391,1.0505,1.0505,1.0505,0.983,0.9848,0.9944,1.0012,1.0106,1.0187,1.0307,1.0407,1.0491,1.0513,1.0467,1.046,1.0423,1.0408,1.043,1.0416,1.0384,0,0]}]]